[[{"header":{"parameterUnit":"m.s-1","parameterCategory":1,"la1":30.2991,"la2":30.254,"lo1":-89.0895,"lo2":-89.0444,"dy":0.0017,"dx":0.0017,"nx":28,"ny":28,"refTime":"2023-04-17T21:00:00:Z","depth":0,"parameterNumber":2,"parameterNumberName":"U-component_of_WINDS"},"data":[0,0,0,0,0,0,0,0,0,0,0,0,0,0,0,0,0,0,0,0,0,0,0,0,0,0,0,0,0,0,0,0,0,0,0,0,0,0,0,0,0,0,0,0,0,0,0,0,0,0,0,0,0,0,0,0,0,0,-2.7103,-2.7104,0,-2.7149,-2.715,-2.715,-2.7129,-2.7128,-2.7127,-2.7126,-2.7172,-2.7174,-2.7177,0,0,0,0,0,0,0,0,0,0,0,0,0,-2.6998,-2.7,-2.7103,-2.7104,-2.7105,-2.7149,-2.715,-2.7151,-2.7129,-2.7128,-2.7126,-2.7125,-2.7171,-2.7174,-2.7177,0,0,0,0,0,0,0,0,0,0,0,0,0,-2.7044,-2.7001,-2.7103,-2.7099,-2.7099,-2.7149,-2.715,-2.7151,-2.713,-2.7128,-2.7126,-2.7124,-2.717,-2.7174,-2.7177,-2.7233,0,0,-2.7188,-2.7189,0,0,0,0,0,0,0,0,-2.7041,-2.7048,-2.7099,-2.71,-2.71,-2.7132,-2.713,-2.7178,-2.713,-2.7118,-2.7126,-2.7124,-2.716,-2.7164,-2.7177,-2.7235,-2.7237,-2.7188,-2.719,-2.7192,-2.7193,0,0,0,0,0,0,0,-2.7038,-2.7046,-2.7122,-2.71,-2.71,-2.7096,-2.71,-2.7139,-2.7148,-2.7119,-2.7118,-2.7123,-2.716,-2.7173,-2.7178,-2.7238,-2.7188,-2.7191,-2.7193,-2.7195,-2.7347,-2.7349,0,0,0,0,0,0,-2.7035,-2.7043,-2.712,-2.7123,-2.7066,-2.7099,-2.7104,-2.7123,-2.7148,-2.715,-2.7125,-2.7122,-2.7168,-2.7174,-2.7179,-2.7247,-2.7192,-2.7195,-2.7197,-2.7345,-2.7348,-2.735,0,0,0,0,0,0,-2.7033,-2.7042,-2.7118,-2.7083,-2.7092,-2.7103,-2.7124,-2.7125,-2.7138,-2.7152,-2.7154,-2.7137,-2.7167,-2.7174,-2.722,-2.7248,-2.7196,-2.72,-2.7343,-2.7346,-2.7349,-2.7383,0,0,0,0,0,0,-2.703,-2.7041,-2.7062,-2.7083,-2.7094,-2.7158,-2.7126,-2.7127,-2.7145,-2.7142,-2.7164,-2.7166,-2.7166,-2.7215,-2.7224,-2.7252,-2.7202,-2.7341,-2.7344,-2.7348,-2.7379,-2.7387,-2.7393,0,0,0,0,0,-2.7026,-2.707,-2.7064,-2.7073,-2.712,-2.716,-2.7166,-2.7166,-2.7147,-2.7168,-2.7178,-2.7165,-2.7244,-2.722,-2.723,-2.7259,-2.7339,-2.7343,-2.7348,-2.7376,-2.7385,-2.7393,0,0,0,0,0,0,-2.7051,-2.7072,-2.7066,-2.7117,-2.7137,-2.7156,-2.7183,-2.7175,-2.7201,-2.7197,-2.7196,-2.7201,-2.7249,-2.7259,-2.7232,-2.7316,-2.7289,-2.7295,-2.7307,-2.7316,-2.7323,-2.7319,-2.7205,0,0,0,0,0,-2.7062,-2.7093,-2.711,-2.7154,-2.7164,-2.7172,-2.7189,-2.7188,-2.7208,-2.7217,-2.7229,-2.7249,-2.7279,-2.7298,-2.7326,-2.7382,-2.7386,-2.7407,-2.7414,-2.7419,-2.7425,-2.7456,-2.7465,-2.7365,-2.7365,-2.7364,0,0,-2.7086,-2.7101,-2.712,-2.7159,-2.7174,-2.7206,-2.7179,-2.7213,-2.7237,-2.7222,-2.7266,-2.7276,-2.7299,-2.7351,-2.7374,-2.736,-2.7454,-2.7425,-2.7429,-2.7432,-2.7461,-2.7471,-2.7479,-2.7368,-2.7367,-2.7367,0,0,-2.7145,-2.716,-2.7198,-2.7215,-2.7239,-2.7245,-2.7254,-2.7275,-2.7282,-2.7327,-2.7316,-2.7345,-2.7396,-2.7413,-2.7428,-2.7497,-2.7487,-2.7507,-2.7542,-2.7572,-2.758,-2.7587,-2.7612,-2.7621,-2.7512,-2.7512,-2.7512,0,-2.7171,-2.7218,-2.7219,-2.7255,-2.7273,-2.7262,-2.7301,-2.7317,-2.7349,-2.7361,-2.7346,-2.7411,-2.7426,-2.7482,-2.7499,-2.7512,-2.7523,-2.7503,-2.7579,-2.7586,-2.7592,-2.7616,-2.7625,-2.7514,-2.7514,-2.7514,-2.7514,0,-2.725,-2.7283,-2.7311,-2.7343,-2.7364,-2.7402,-2.7409,-2.743,-2.7428,-2.7436,-2.7483,-2.75,-2.7532,-2.7546,-2.7543,-2.7602,-2.7593,-2.7579,-2.7551,-2.7604,-2.7626,-2.7635,-2.7518,-2.7517,-2.7516,-2.7516,0,0,-2.7323,-2.7357,-2.7367,-2.7382,-2.7409,-2.7435,-2.7473,-2.7505,-2.7523,-2.7547,-2.7579,-2.7624,-2.7611,-2.7629,-2.7629,-2.7656,-2.771,-2.7638,-2.7639,-2.7651,-2.7776,-2.7786,-2.7797,-2.7704,-2.7706,-2.7708,-2.7774,0,-2.7384,-2.7449,-2.7453,-2.7513,-2.7544,-2.7536,-2.7569,-2.7589,-2.7598,-2.7627,-2.7637,-2.7668,-2.765,-2.766,-2.7687,-2.7698,-2.7735,-2.7693,-2.7734,-2.7735,-2.7727,-2.7808,-2.7818,-2.788,-2.7783,-2.7785,-2.7786,0,-2.7462,-2.7489,-2.7553,-2.7577,-2.759,-2.762,-2.7651,-2.7678,-2.7702,-2.7706,-2.7728,-2.7724,-2.7764,-2.7737,-2.7792,-2.7763,-2.7781,-2.7789,-2.7792,-2.7794,-2.7763,-2.7812,-2.79,-2.7909,-2.7799,-2.7798,-2.7797,0,-2.7509,-2.7561,-2.7606,-2.7619,-2.7649,-2.767,-2.7684,-2.7706,-2.7726,-2.7753,-2.7766,-2.7797,-2.7814,-2.7839,-2.7845,-2.7824,-2.79,-2.7873,-2.7905,-2.7905,-2.792,-2.7919,-2.8011,-2.7933,-2.7933,-2.7933,-2.7933,0,-2.7576,-2.7615,-2.7628,-2.7655,-2.7699,-2.7704,-2.7747,-2.776,-2.778,-2.781,-2.7806,-2.7834,-2.7841,-2.7871,-2.7876,-2.7921,-2.7929,-2.7934,-2.7935,-2.7934,-2.7933,-2.7944,-2.794,-2.7935,-2.7935,-2.7934,-2.7934,0,-2.7634,-2.7645,-2.7693,-2.7718,-2.7725,-2.7757,-2.7778,-2.7805,-2.7815,-2.7854,-2.7863,-2.7878,-2.7913,-2.7922,-2.7964,-2.7968,-2.8021,-2.8018,-2.8013,-2.8013,-2.8044,-2.8041,-2.8146,-2.816,-2.8074,-2.8074,-2.8075,0,-2.7676,-2.7706,-2.7735,-2.7755,-2.777,-2.7802,-2.7823,-2.7829,-2.7851,-2.7882,-2.7905,-2.7941,-2.7969,-2.8027,-2.8041,-2.8074,-2.8071,-2.8106,-2.8076,-2.8075,-2.8072,-2.8069,-2.8073,-2.8111,-2.8112,-2.8113,-2.8113,0,-2.7748,-2.7752,-2.7782,-2.7815,-2.784,-2.7865,-2.789,-2.7907,-2.7917,-2.7942,-2.7978,-2.8001,-2.8045,-2.808,-2.8114,-2.8128,-2.8123,-2.8123,-2.8132,-2.8131,-2.8127,-2.8129,-2.8028,-2.812,-2.8119,-2.8119,-2.8119,-2.8118,-2.7799,-2.7826,-2.7851,-2.7885,-2.7905,-2.7928,-2.7955,-2.7969,-2.8,-2.8036,-2.8039,-2.8079,-2.8104,-2.8149,-2.8166,-2.8198,-2.8187,-2.82,-2.8203,-2.8206,-2.8209,-2.8123,-2.8204,-2.8204,-2.8203,-2.8203,-2.8203,0,-2.7871,-2.7887,-2.7919,-2.7954,-2.7981,-2.7975,-2.8003,-2.8026,-2.8061,-2.8086,-2.8114,-2.8157,-2.8192,-2.8211,-2.8246,-2.8268,-2.8267,-2.8277,-2.8275,-2.8278,-2.8216,-2.8205,-2.8278,-2.8278,-2.8278,-2.8278,-2.8278,-2.8278,-2.7912,-2.7957,-2.7965,-2.802,-2.8037,-2.8076,-2.8092,-2.8115,-2.8134,-2.8183,-2.8212,-2.8224,-2.8247,-2.8284,-2.8316,-2.8321,-2.8334,-2.8345,-2.8349,-2.829,-2.8283,-2.8275,-2.8264,-2.8348,-2.8348,-2.8408,-2.8408,-2.8409]},{"header":{"parameterUnit":"m.s-1","parameterCategory":1,"la1":30.2991,"la2":30.254,"lo1":-89.0895,"lo2":-89.0444,"dy":0.0017,"dx":0.0017,"nx":28,"ny":28,"refTime":"2023-04-17T21:00:00:Z","depth":0,"parameterNumber":3,"parameterNumberName":"V-component_of_WINDS"},"data":[0,0,0,0,0,0,0,0,0,0,0,0,0,0,0,0,0,0,0,0,0,0,0,0,0,0,0,0,0,0,0,0,0,0,0,0,0,0,0,0,0,0,0,0,0,0,0,0,0,0,0,0,0,0,0,0,0,0,2.846,2.846,0,2.8466,2.8466,2.8466,2.8497,2.8497,2.8498,2.8499,2.8502,2.8501,2.8501,0,0,0,0,0,0,0,0,0,0,0,0,0,2.8472,2.8471,2.846,2.846,2.846,2.8466,2.8466,2.8466,2.8496,2.8497,2.8498,2.8499,2.8502,2.8501,2.8501,0,0,0,0,0,0,0,0,0,0,0,0,0,2.8471,2.8471,2.846,2.8476,2.8477,2.8466,2.8466,2.8466,2.8496,2.8497,2.8499,2.85,2.8502,2.8501,2.8501,2.8473,0,0,2.8498,2.8497,0,0,0,0,0,0,0,0,2.8471,2.847,2.8473,2.8475,2.8476,2.8482,2.8471,2.8468,2.8496,2.8489,2.8499,2.85,2.8494,2.8494,2.8492,2.8473,2.8473,2.8498,2.8497,2.8497,2.8496,0,0,0,0,0,0,0,2.8471,2.847,2.8462,2.8473,2.8475,2.8482,2.8483,2.8471,2.8485,2.849,2.8492,2.8492,2.8495,2.8493,2.8493,2.8473,2.8498,2.8497,2.8496,2.8496,2.8432,2.8431,0,0,0,0,0,0,2.8469,2.847,2.8462,2.8462,2.8476,2.8481,2.8482,2.8479,2.8485,2.8488,2.8491,2.8494,2.8494,2.8494,2.8493,2.8462,2.8497,2.8496,2.8495,2.8433,2.8432,2.843,0,0,0,0,0,0,2.8469,2.8468,2.8462,2.8467,2.8467,2.848,2.8475,2.8478,2.8477,2.8487,2.8489,2.8487,2.8495,2.8494,2.8478,2.8462,2.8495,2.8495,2.8434,2.8433,2.8431,2.8398,0,0,0,0,0,0,2.847,2.8468,2.8458,2.8466,2.8466,2.8447,2.8475,2.8478,2.8475,2.8479,2.8483,2.8485,2.8496,2.8479,2.8477,2.8461,2.8494,2.8436,2.8434,2.8432,2.8401,2.8396,2.8391,0,0,0,0,0,2.847,2.8448,2.8458,2.8456,2.8454,2.8446,2.8446,2.846,2.8474,2.8464,2.8471,2.8485,2.8464,2.8477,2.8475,2.8459,2.8437,2.8434,2.8432,2.8403,2.8397,2.8391,0,0,0,0,0,0,2.8436,2.8449,2.846,2.844,2.8442,2.8451,2.8439,2.8452,2.8449,2.8452,2.8468,2.8469,2.845,2.8453,2.8467,2.8433,2.8453,2.845,2.8432,2.8426,2.8421,2.8421,2.8493,0,0,0,0,0,2.8427,2.842,2.8431,2.8412,2.8413,2.8426,2.8423,2.8433,2.8435,2.8436,2.8441,2.8442,2.8435,2.8431,2.8425,2.8401,2.8403,2.8389,2.8384,2.838,2.8377,2.8365,2.8359,2.8422,2.8422,2.8422,0,0,2.8406,2.8413,2.8407,2.8406,2.8409,2.84,2.8426,2.8416,2.841,2.8434,2.8419,2.8423,2.8425,2.8405,2.8396,2.8407,2.8361,2.8377,2.8374,2.8373,2.8362,2.8356,2.8351,2.842,2.842,2.8421,0,0,2.8365,2.837,2.8355,2.8357,2.8361,2.837,2.8367,2.8374,2.8378,2.8364,2.8382,2.8374,2.8363,2.8364,2.8363,2.8323,2.8336,2.8321,2.8295,2.8283,2.8278,2.8274,2.826,2.8255,2.8318,2.8318,2.8317,0,2.834,2.8329,2.8345,2.8335,2.8334,2.8356,2.8341,2.8342,2.8344,2.8342,2.8354,2.8341,2.8343,2.8324,2.8315,2.8313,2.8309,2.832,2.8278,2.8274,2.827,2.8257,2.8252,2.8316,2.8316,2.8316,2.8316,0,2.8297,2.829,2.8277,2.828,2.8277,2.8264,2.8278,2.8273,2.8284,2.8291,2.8277,2.8281,2.8277,2.8273,2.8283,2.8255,2.8262,2.8275,2.8296,2.8262,2.825,2.8245,2.8313,2.8314,2.8314,2.8315,0,0,2.8235,2.8247,2.8242,2.8244,2.8251,2.8245,2.8233,2.823,2.8226,2.8226,2.8216,2.8207,2.822,2.8219,2.8229,2.8218,2.8187,2.8233,2.8234,2.8225,2.8157,2.8147,2.8141,2.8196,2.8195,2.8194,2.8157,0,2.8196,2.8178,2.8192,2.8171,2.8164,2.8185,2.8175,2.8177,2.8184,2.8178,2.8185,2.8179,2.8196,2.8196,2.8186,2.8193,2.8174,2.8196,2.8187,2.8186,2.8186,2.8134,2.8123,2.8088,2.8152,2.8152,2.8151,0,2.8149,2.8149,2.8127,2.8135,2.8133,2.8123,2.8123,2.8117,2.812,2.8126,2.8125,2.8138,2.8126,2.8147,2.8131,2.8146,2.8143,2.8145,2.8144,2.8144,2.8166,2.8133,2.8077,2.8071,2.8144,2.8144,2.8145,0,2.8106,2.81,2.8087,2.8087,2.8097,2.809,2.8093,2.8097,2.8095,2.8094,2.8093,2.809,2.8088,2.8085,2.8097,2.8111,2.8079,2.8101,2.8083,2.8083,2.8076,2.8076,2.8019,2.8074,2.8074,2.8074,2.8074,0,2.8062,2.8048,2.8068,2.8059,2.8044,2.806,2.8045,2.805,2.8054,2.8046,2.8064,2.8057,2.8073,2.8067,2.8076,2.8061,2.806,2.8064,2.8066,2.8062,2.8062,2.8061,2.8064,2.8072,2.8073,2.8073,2.8073,0,2.8012,2.8025,2.8011,2.8022,2.8024,2.8012,2.8021,2.8013,2.8021,2.8012,2.801,2.8022,2.8016,2.8028,2.8023,2.8029,2.8009,2.8015,2.8008,2.801,2.7992,2.7994,2.7932,2.7925,2.7984,2.7984,2.7983,0,2.7983,2.7973,2.7982,2.7979,2.7982,2.7976,2.7975,2.799,2.7987,2.7991,2.7982,2.7978,2.7975,2.7964,2.7972,2.7969,2.7975,2.7954,2.7975,2.7971,2.7975,2.7976,2.7975,2.795,2.7949,2.7948,2.7948,0,2.793,2.7937,2.7934,2.7934,2.7931,2.7931,2.7932,2.7929,2.7945,2.7941,2.7936,2.7934,2.7929,2.7925,2.7923,2.7926,2.7939,2.7941,2.7937,2.7933,2.7929,2.7931,2.7997,2.7943,2.7943,2.7943,2.7944,2.7944,2.789,2.7882,2.7888,2.7884,2.7887,2.7888,2.7881,2.7889,2.7885,2.7884,2.7893,2.7885,2.7889,2.7888,2.789,2.7884,2.7893,2.7887,2.7886,2.7884,2.7881,2.793,2.7883,2.7884,2.7884,2.7884,2.7884,0,2.7838,2.7843,2.784,2.7842,2.7839,2.7853,2.7855,2.7851,2.7845,2.7847,2.7845,2.7839,2.7834,2.7842,2.7839,2.7833,2.7839,2.7832,2.7832,2.7833,2.7873,2.7877,2.7827,2.7827,2.7827,2.7827,2.7827,2.7827,2.7811,2.7799,2.7807,2.7796,2.7801,2.7794,2.7795,2.7795,2.7798,2.779,2.7787,2.7793,2.7797,2.7795,2.7792,2.7794,2.7792,2.7782,2.7787,2.7824,2.783,2.7835,2.7839,2.7782,2.7782,2.7747,2.7747,2.7747]}]]